CW9921 Weather Reports


time (UTC)temp
F
wind
direction
speed
knots
gust
knots
rain 1hr
in
rain 24hr
in
rain mn
in
humidity
%
barometer
mb
20260504044548 49 0 0.0 0.0 0.00 0.00 0.00 80 1017.2
20260504043054 50 0 0.0 0.0 0.00 0.00 0.00 79 1017.2
20260504041549 50 0 0.0 0.0 0.00 0.00 0.00 77 1017.5
20260504040056 51 0 0.0 0.0 0.00 0.00 0.00 77 1017.5
20260504034554 51 0 0.0 0.0 0.00 0.00 0.00 76 1017.7
20260504033054 52 0 0.0 0.0 0.00 0.00 0.00 75 1017.7
20260504031554 52 0 0.0 0.0 0.00 0.00 0.00 74 1017.8
20260504030050 52 0 0.0 0.0 0.00 0.00 0.00 71 1017.8
20260504024608 53 0 0.0 0.9 0.00 0.00 0.00 71 1017.6
20260504023053 53 0 0.0 0.0 0.00 0.00 0.00 71 1017.3
20260504021554 53 0 0.0 0.0 0.00 0.00 0.00 70 1017.3
20260504020050 53 0 0.0 0.0 0.00 0.00 0.00 69 1017.3
20260504014558 54 0 0.0 0.0 0.00 0.00 0.00 68 1017.3
20260504013056 54 0 0.0 0.0 0.00 0.00 0.00 67 1017.2
20260504011550 55 0 0.0 0.0 0.00 0.00 0.00 65 1017.2
20260504004550 58 0 0.0 0.0 0.00 0.00 0.00 59 1017.1
20260504003055 60 0 0.0 0.0 0.00 0.00 0.00 54 1017.2
20260504001550 62 0 0.0 0.0 0.00 0.00 0.00 49 1017.3
20260504000130 63 0 0.0 0.0 0.00 0.00 0.00 47 1017.0
20260503234559 64 0 0.0 0.9 0.00 0.00 0.00 45 1017.1
20260503233058 64 0 0.0 0.9 0.00 0.00 0.00 44 1017.3
20260503231555 64 0 0.9 1.7 0.00 0.00 0.00 45 1017.4
20260503230055 65 259 0.0 0.9 0.00 0.00 0.00 46 1017.7
20260503224558 65 0 0.0 2.6 0.00 0.00 0.00 44 1017.8
20260503223057 66 300 0.0 1.7 0.00 0.00 0.00 43 1017.9
20260503221600 66 0 0.0 2.6 0.00 0.00 0.00 43 1017.8
20260503220057 66 265 0.0 0.9 0.00 0.00 0.00 44 1017.7
20260503214553 67 0 0.0 1.7 0.00 0.00 0.00 43 1018.0
20260503213052 68 266 0.0 4.3 0.00 0.00 0.00 41 1018.0
20260503211602 68 278 0.9 3.5 0.00 0.00 0.00 42 1018.3
20260503210101 69 259 0.0 3.5 0.00 0.00 0.00 43 1018.5
20260503204558 69 295 0.0 2.6 0.00 0.00 0.00 43 1018.7
20260503203110 69 0 0.0 2.6 0.00 0.00 0.00 42 1018.8
20260503201554 69 269 0.9 3.5 0.00 0.00 0.00 39 1019.1
20260503200051 69 0 0.9 1.7 0.00 0.00 0.00 39 1019.4
20260503194557 69 0 0.0 1.7 0.00 0.00 0.00 44 1019.7
20260503193055 68 273 0.9 3.5 0.00 0.00 0.00 43 1019.9
20260503191551 68 285 0.9 2.6 0.00 0.00 0.00 42 1020.2
20260503190053 67 0 0.0 2.6 0.00 0.00 0.00 43 1020.5
20260503184550 68 0 0.0 1.7 0.00 0.00 0.00 43 1020.6
20260503183052 67 257 0.0 2.6 0.00 0.00 0.00 43 1020.6
20260503181601 68 0 0.0 1.7 0.00 0.00 0.00 41 1020.8
20260503180052 68 0 0.0 0.9 0.00 0.00 0.00 46 1020.8
20260503174552 65 0 0.0 0.9 0.00 0.00 0.00 43 1021.0
20260503173057 65 0 0.0 1.7 0.00 0.00 0.00 44 1021.3
20260503171552 63 132 0.0 3.5 0.00 0.00 0.00 47 1021.4
20260503081556 40 0 0.0 0.0 0.00 0.00 0.00 96 1020.3